SCP
0 0 1 1 1 1 1 1 1 1 1 0 0 0 0 0 0 0 0 0 0 0 0 0 0 0 0 0 0 0 0 0 0 0 0 0 0 0 0 0 0 0 0
0 0 1 1 1 1 1 1 1 1 1 1 0 0 0 0 0 0 0 0 0 0 0 0 0 0 0 0 0 0 0 0 0 0 0 0 0 0 0 0 0 0 0
0 0 1 1 1 1 1 1 1 1 1 1 1 1 0 0 0 0 0 1 1 1 0 0 0 0 0 0 0 0 0 0 0 0 0 0 0 0 0 0 0 0 0
0 0 1 1 1 1 1 1 1 1 1 1 1 1 1 1 0 1 1 1 1 1 1 1 1 1 0 0 0 0 0 0 0 0 0 0 0 0 0 0 0 0 0
1 1 1 1 1 1 1 1 1 1 1 1 1 1 1 1 1 1 1 1 1 1 1 1 1 1 1 1 0 0 0 0 0 0 0 0 0 0 0 0 0 0 0
1 1 1 1 1 1 1 1 1 1 1 1 1 1 1 1 1 1 1 1 1 1 1 1 1 1 1 1 1 1 1 0 0 0 0 0 0 0 0 0 0 0 0
1 1 1 1 1 1 1 1 2 2 1 1 1 1 1 1 1 1 1 1 1 1 1 1 1 1 1 1 1 1 1 1 0 0 0 0 0 0 0 0 0 0 0
1 1 1 1 1 1 1 2 2 2 2 1 1 1 1 1 1 1 1 1 1 1 1 1 1 1 1 1 1 1 1 1 1 0 0 0 0 0 0 0 0 0 0
1 1 1 1 1 1 1 1 2 2 2 1 1 1 1 1 1 1 1 1 1 1 1 1 1 1 1 1 1 1 1 1 1 1 1 1 1 0 0 0 0 0 0
1 1 1 1 1 1 1 1 1 2 2 1 1 1 1 1 1 1 1 1 1 1 1 1 1 1 1 1 1 1 1 1 1 1 1 1 1 1 1 0 0 0 0
1 1 1 1 1 1 1 1 1 1 1 1 1 1 1 1 1 1 1 1 1 1 1 1 1 1 1 1 1 1 1 1 1 1 1 1 1 1 1 0 0 1 0
0 1 1 1 1 1 1 1 1 1 1 1 1 1 1 1 1 1 1 1 1 1 1 1 1 1 1 1 1 1 1 1 1 1 1 1 1 1 1 1 1 1 1
1 1 1 1 1 1 1 1 1 1 1 1 1 1 1 1 1 1 1 1 1 1 1 1 1 1 1 1 1 1 1 1 1 1 1 1 1 1 1 1 1 1 1
1 1 1 2 2 2 2 2 2 1 1 1 1 1 1 1 1 1 1 1 1 1 1 1 1 1 1 1 1 1 1 1 1 1 1 1 1 1 1 1 1 1 1
1 1 1 2 2 2 2 2 2 2 2 2 1 1 1 1 1 1 1 1 1 1 1 1 1 1 1 1 1 1 1 1 1 1 1 1 1 1 1 1 1 1 1
1 1 1 1 1 1 2 2 2 2 2 2 2 1 1 1 1 1 1 1 1 1 1 1 1 1 1 1 1 1 1 1 1 1 1 1 1 1 1 1 0 0 0
1 1 1 1 1 1 1 1 1 1 2 2 2 2 1 1 1 1 1 1 1 1 1 1 1 1 1 0 0 0 0 1 1 1 1 1 1 1 1 1 0 0 0
1 1 1 1 1 1 1 1 1 1 1 2 2 2 2 1 1 1 1 1 1 1 1 1 1 1 1 0 0 0 0 1 1 1 1 1 1 1 1 1 1 1 1
1 1 1 1 1 1 1 1 1 1 1 1 2 2 2 1 1 1 1 1 1 1 1 1 1 1 1 1 0 0 0 1 1 1 1 1 1 1 1 1 1 1 1
1 1 1 1 1 2 2 2 1 1 1 1 1 2 2 2 1 1 1 1 1 1 1 1 1 1 1 1 0 0 0 1 1 1 1 1 1 0 0 1 1 1 1
1 1 1 1 1 2 2 2 2 2 1 1 1 1 1 1 1 1 1 2 1 1 1 1 1 1 1 1 0 0 0 1 1 1 1 1 0 0 0 0 1 1 1
1 1 1 1 1 2 2 2 2 2 2 2 2 2 1 1 1 1 1 2 1 1 1 1 1 1 1 1 0 0 0 0 1 1 1 1 0 0 0 0 0 0 0
1 1 1 1 1 1 2 2 2 2 2 2 2 2 2 1 1 1 1 1 1 1 1 1 1 1 1 1 1 0 0 0 0 1 1 0 0 0 0 0 0 0 0
1 1 1 1 1 2 2 2 2 2 2 2 2 2 2 1 1 1 1 1 1 1 1 1 1 1 1 1 1 0 0 0 0 0 0 0 0 0 0 0 0 0 0
1 1 1 1 1 2 2 2 2 2 2 2 2 2 1 1 1 1 1 1 1 1 1 1 1 1 1 1 1 1 0 0 0 0 0 0 0 0 0 0 0 0 0
1 1 1 1 1 1 1 1 2 2 2 2 2 1 1 1 1 1 1 1 1 1 1 1 1 1 1 1 0 0 0 0 0 0 0 1 1 1 1 1 0 0 0
Wind_Speed
8 8 8 8 8 8 6 5 5 4 2 2 1 1 1 1 1 1 3 2 2 2 1 1 2 1 1 1 2 2 3 2 2 1 1 1 2 2 1 2 2 3 3
7 7 7 8 8 8 7 5 5 4 3 3 2 1 1 1 1 1 2 2 2 1 1 1 1 1 1 2 2 1 1 2 2 1 1 1 1 0 1 2 3 3 3
9 9 8 8 8 7 7 6 5 4 3 3 2 1 1 1 1 1 1 2 2 2 1 2 0 1 1 1 1 1 2 1 1 1 1 1 1 0 0 1 2 3 2
10 9 8 8 8 9 8 6 5 4 4 3 2 2 2 1 1 1 1 2 2 2 2 2 1 0 0 1 1 1 1 1 1 0 0 0 0 0 0 1 1 2 2
9 9 10 8 8 9 9 8 6 4 4 3 2 1 1 1 1 1 2 1 1 1 1 1 1 1 0 0 1 0 1 1 1 1 0 0 1 1 1 1 1 1 1
7 8 8 8 7 8 8 9 7 5 5 4 4 3 2 1 1 1 1 2 1 1 1 1 1 1 1 1 1 0 1 1 1 1 0 0 1 1 1 1 1 1 1
7 7 7 8 6 7 8 8 8 6 5 5 4 3 2 2 2 2 2 1 1 1 2 1 1 1 1 1 1 1 1 1 1 1 1 1 1 1 1 1 1 1 1
6 8 9 8 7 7 7 8 8 7 6 5 4 3 3 3 2 1 1 1 1 1 2 2 1 1 1 1 1 1 2 1 1 2 2 1 1 1 1 1 1 1 1
6 7 8 8 7 7 7 7 7 7 6 5 4 3 3 2 2 1 2 1 0 1 1 2 1 1 1 1 1 2 1 1 2 2 2 2 1 1 1 1 2 2 1
5 5 6 7 7 7 6 6 6 6 5 5 4 4 4 3 2 1 1 0 0 0 0 1 1 1 1 1 1 2 2 2 2 2 2 2 2 1 2 2 2 2 2
5 4 4 5 5 6 6 6 5 5 4 4 4 3 3 3 3 2 2 1 1 1 1 1 1 1 1 1 1 2 1 2 2 2 2 3 2 2 2 1 1 1 2
4 5 5 5 4 4 5 6 6 5 4 3 3 3 3 2 2 2 2 2 2 2 1 1 1 2 1 1 2 2 2 2 2 3 2 3 2 2 2 1 2 2 2
4 4 5 5 3 3 3 4 4 4 4 4 3 2 2 2 2 2 2 2 2 2 2 2 2 2 2 2 2 2 2 2 2 2 2 3 3 2 2 3 2 2 2
4 4 5 4 3 3 2 2 3 3 3 3 3 2 2 1 1 1 2 2 2 3 3 3 3 3 3 3 2 2 3 2 3 2 2 3 2 2 3 3 3 2 2
3 4 5 4 3 3 2 2 2 2 2 3 2 2 2 1 1 2 2 2 3 4 3 3 3 3 3 3 2 3 4 3 3 3 3 3 2 2 2 2 2 2 2
3 3 4 4 3 2 2 1 1 1 1 2 2 2 2 2 2 2 2 2 3 3 3 3 3 4 4 3 3 2 3 3 3 4 3 3 4 4 5 5 5 5 4
2 2 3 3 2 2 2 1 1 2 2 2 1 2 2 2 3 3 2 3 3 3 3 3 4 4 3 3 3 3 4 4 3 4 3 4 4 4 4 5 6 7 8
2 3 2 2 1 1 2 1 0 1 2 2 2 2 2 2 2 2 3 3 3 3 3 4 4 4 4 4 4 4 5 5 5 4 4 4 3 3 2 3 4 5 5
3 2 2 2 2 2 2 1 0 1 1 2 1 1 1 2 2 3 3 3 3 4 4 4 4 4 4 5 5 4 4 4 5 5 4 3 3 2 2 3 4 4 3
4 3 2 2 3 2 1 0 1 1 1 2 1 1 2 2 3 3 3 4 4 4 4 4 4 5 4 6 7 6 4 4 4 3 3 3 3 3 3 3 3 4 3
4 4 3 2 2 2 1 0 1 1 1 1 1 2 2 3 3 3 3 3 4 4 4 4 4 4 5 6 7 7 4 3 3 3 3 2 4 4 5 4 4 4 3
4 3 3 2 2 1 0 1 1 2 2 1 1 2 2 3 3 2 3 4 4 5 4 4 4 4 4 5 7 8 8 5 4 4 2 1 4 4 5 5 5 4 3
3 2 2 2 2 1 1 1 2 2 2 2 2 2 3 3 2 3 3 3 3 4 3 3 4 3 2 3 5 7 7 8 5 3 2 2 4 4 5 7 7 4 3
2 2 2 2 2 1 2 2 2 2 2 2 2 2 3 3 3 3 3 3 3 3 3 3 3 2 2 1 2 2 3 5 5 4 4 4 6 5 4 4 4 4 4
2 2 1 1 1 1 2 2 2 2 2 3 3 3 4 3 3 3 3 3 2 3 4 3 3 3 2 1 2 2 3 3 3 3 4 4 3 3 4 3 4 4 3
1 1 1 1 1 2 1 1 1 1 2 3 3 3 3 3 3 2 3 3 3 4 5 6 5 3 2 2 3 3 3 4 3 3 4 4 4 4 4 3 3 3 3
Wind_Direction
153 151 148 145 143 141 144 148 149 148 143 143 150 160 153 152 127 118 109 118 130 130 158 146 165 195 171 182 191 194 205 208 208 215 240 239 221 177 165 163 155 148 149
144 141 152 153 149 150 149 152 158 156 159 148 148 177 185 162 137 91 116 122 118 125 153 114 177 182 171 179 203 211 238 241 204 210 231 227 228 236 175 151 160 144 136
159 160 168 162 159 158 161 165 160 155 168 166 171 175 166 179 154 141 145 138 146 144 107 124 154 201 181 156 202 215 216 244 253 222 201 216 207 344 134 175 137 134 131
163 163 165 171 171 165 163 153 156 162 168 172 180 183 161 164 175 149 133 142 156 157 151 149 171 208 173 141 224 170 239 224 251 270 158 204 147 172 353 6 105 127 132
161 166 172 172 177 168 162 158 155 165 168 181 184 185 201 181 136 114 133 159 145 161 147 146 155 159 214 173 281 91 290 264 258 264 227 244 256 226 197 215 176 142 154
160 161 163 162 173 169 163 154 153 164 175 186 185 187 201 191 158 172 178 182 161 173 160 139 144 191 212 196 220 230 261 291 322 314 307 238 226 210 208 235 229 197 200
157 155 153 162 166 168 159 150 153 165 178 186 187 187 194 218 219 222 203 203 171 169 162 167 184 217 220 216 211 221 264 265 265 261 256 266 259 191 188 205 243 241 229
151 147 154 160 163 170 159 154 157 166 177 183 183 181 197 222 219 231 236 215 203 177 147 170 197 216 211 219 198 215 218 228 244 255 246 259 257 233 227 214 208 247 255
147 145 150 151 158 165 164 162 160 168 176 181 178 184 199 218 204 191 232 239 230 195 126 167 186 205 209 233 214 217 227 213 228 254 252 247 252 229 233 223 211 209 239
142 143 142 145 156 158 150 148 154 163 168 174 187 185 190 193 188 200 174 237 295 18 170 187 182 214 223 234 245 231 216 213 222 227 234 250 268 264 241 234 227 213 207
146 132 129 129 140 150 153 148 154 149 157 172 189 177 167 176 183 191 198 223 230 217 223 246 234 237 237 234 232 240 237 228 236 246 228 228 234 262 269 246 230 216 199
131 128 128 123 124 143 155 151 156 157 160 169 175 180 167 178 188 200 210 214 225 230 224 224 231 233 224 236 250 253 249 234 230 237 241 246 232 240 253 262 249 233 223
100 112 114 112 116 121 130 148 153 157 163 165 169 169 172 183 203 215 212 215 225 233 229 230 234 246 247 240 248 256 261 260 251 242 235 238 232 235 241 248 250 241 240
99 104 104 97 96 98 96 114 137 143 148 157 170 173 198 191 208 229 225 228 234 233 226 227 231 230 239 245 243 248 252 256 258 254 249 248 237 234 249 250 247 247 241
99 110 111 105 105 96 92 96 106 118 144 158 172 185 196 185 212 218 226 233 245 249 234 230 232 232 234 235 230 247 247 242 250 251 246 243 220 218 235 261 264 262 247
118 122 123 124 123 119 108 103 123 126 146 174 186 184 194 195 213 227 225 228 242 254 248 237 233 242 247 225 199 235 265 249 246 249 248 230 216 214 215 227 238 238 238
109 106 118 125 142 151 133 137 142 160 180 196 213 195 205 212 212 227 229 230 238 244 252 247 237 235 236 216 207 225 252 258 252 251 249 262 238 212 217 226 235 238 238
82 67 89 104 113 147 127 130 207 172 194 207 211 218 216 226 227 228 232 237 241 243 247 249 244 235 228 211 215 230 245 252 247 243 244 247 241 247 253 246 245 241 239
81 80 67 79 73 55 88 110 262 217 223 231 226 228 230 235 230 231 237 240 242 248 243 245 245 241 226 210 214 215 250 247 247 243 243 249 233 228 246 252 257 261 253
52 59 61 61 64 52 83 194 260 263 260 269 265 244 219 233 241 237 239 242 240 247 249 245 243 240 231 210 212 210 244 253 248 239 229 220 214 199 211 235 253 260 267
56 50 48 53 58 50 46 327 289 291 288 278 259 246 222 235 232 228 244 247 247 248 248 251 249 239 229 206 205 203 230 259 260 247 229 213 189 203 216 227 237 246 261
51 50 44 36 39 37 10 280 306 320 316 287 261 258 251 258 247 234 249 253 254 253 243 243 251 242 221 207 200 203 217 247 263 262 248 192 183 208 224 229 242 243 250
36 24 30 37 34 16 351 317 340 328 309 287 267 262 261 258 250 240 249 250 249 254 256 244 249 250 235 194 193 206 225 242 252 270 282 265 226 218 226 234 242 240 236
27 19 20 17 14 10 348 340 339 316 302 293 288 273 264 259 257 252 249 248 253 256 260 259 257 252 237 210 182 211 231 242 252 264 270 247 231 231 240 235 223 223 229
23 15 12 15 359 345 332 322 316 312 300 292 288 283 276 271 265 265 275 265 266 253 247 266 275 272 263 245 213 234 241 242 242 259 254 238 220 222 221 218 212 212 220
13 357 344 345 327 311 313 315 309 313 307 296 292 284 284 285 279 277 294 306 268 244 232 235 245 263 245 227 227 234 246 244 232 239 250 244 237 232 229 225 224 212 216